Flag for United Kingdom Weather past 2 weeks in Stafford, England, United Kingdom

Now
48 °F

Cool.


Feels Like: 43 °F
Forecast: 35 / 53 °F
Wind: 12 mph from East

Location: Shawbury

Current Time: Apr 18, 2015 at 9:23:00 PM

Latest Report: Apr 18, 2015 at 8:50 PM


Visibility: N/A

Pressure: 30.36 "Hg

Humidity: 66%

Dew point: 37 °F

Location of StaffordLocation

Historic Weather in Stafford — Graph

°F

Stafford temperature yesterday

Maximum temperature yesterday: 54 °F (at 1:50 PM)
Minimum temperature yesterday: 45 °F (at 5:50 AM)
Average temperature yesterday: 49 °F

Past Weeks' High & Low Weather Summary

 TemperatureHumidityPressure
High66 °F (Apr 10, 4:50 PM)100% (Apr 5, 4:50 AM)30.63 "Hg (Apr 5, 4:50 AM)
Low28 °F (Apr 13, 3:50 AM)45% (Apr 8, 4:50 PM)29.74 "Hg (Apr 11, 4:50 AM)
Average49 °F77%30.24 "Hg
* Reported Apr 3 7:50 PM — Apr 18 7:50 PM, Stafford, Weather by CustomWeather, © 2015

Note: Actual official high and low records may vary slightly from our data, if they occured in-between our weather recording intervals... More about our weather records

Advertising

Stafford weather history for previous 24 hours

 ConditionsComfort  
Time TempWeatherWind HumidityBarometerVisibility
7:50 PM
Sat, Apr 18
52 °FCool.12 mph58%30.36 "HgN/A
6:50 PM55 °FRefreshingly cool.13 mph51%30.36 "HgN/A
5:50 PM57 °FRefreshingly cool.16 mph48%30.36 "HgN/A
4:50 PM57 °FRefreshingly cool.15 mph51%30.36 "HgN/A
3:50 PM57 °FRefreshingly cool.16 mph51%30.36 "HgN/A
2:50 PM55 °FRefreshingly cool.15 mph55%30.39 "HgN/A
1:50 PM55 °FRefreshingly cool.15 mph51%30.39 "HgN/A
12:50 PM54 °FCool.15 mph51%30.39 "HgN/A
11:50 AM52 °FCool.13 mph58%30.42 "HgN/A
10:50 AM50 °FCool.15 mph62%30.42 "HgN/A
9:50 AM46 °FCool.15 mph71%30.42 "HgN/A
8:50 AM45 °FPassing clouds.17 mph76%30.42 "HgN/A
7:50 AM41 °FPassing clouds.6 mph87%30.42 "HgN/A
6:50 AM37 °FPassing clouds.3 mph87%30.39 "HgN/A
5:50 AM39 °FOvercast.6 mph87%30.39 "HgN/A
4:50 AM39 °FOvercast.3 mph87%30.39 "HgN/A
3:50 AM37 °FPassing clouds.1 mph100%30.39 "HgN/A
2:50 AM41 °FPassing clouds.7 mph87%30.39 "HgN/A
1:50 AM43 °FPassing clouds.7 mph87%30.36 "HgN/A
12:50 AM43 °FPassing clouds.6 mph87%30.36 "HgN/A
11:50 PM
Fri, Apr 17
45 °FPassing clouds.10 mph81%30.33 "HgN/A
10:50 PM45 °FPassing clouds.9 mph81%30.33 "HgN/A
9:50 PM46 °FPassing clouds.9 mph76%30.30 "HgN/A
Weather by CustomWeather, © 2015

See weather overviewHow to use our weather pages